Chicago DuPage, IL

1:34 PM CDT on March 23, 2017 (GMT -0500)
Du Page

Weather History for KDPA - September, 2013

Change the Weather History Date:

Wednesday, September 25, 2013

  Actual Average Record
Temperature  
Mean Temperature 59 °F 60 °F  
Max Temperature 72 °F 72 °F 85 °F (2007)
Min Temperature 45 °F 49 °F 38 °F (2001)
Degree Days  
Heating Degree Days 6 6  
Month to date heating degree days 80 67  
Since 1 July heating degree days 106 76  
Cooling Degree Days 0 1  
Month to date cooling degree days 99 73  
Year to date cooling degree days 726 797  
Growing Degree Days 8 (Base 50)    
Moisture  
Dew Point 49 °F    
Average Humidity 79    
Maximum Humidity 100    
Minimum Humidity 47    
Precipitation  
Precipitation 0.00 in 0.11 in 0.10 in (2005)
Month to date precipitation 1.66 2.69  
Year to date precipitation 29.02 28.32  
Sea Level Pressure  
Sea Level Pressure 29.96 in    
Wind  
Wind Speed 6 mph (NNE)    
Max Wind Speed 14 mph    
Max Gust Speed 17 mph    
Visibility 8 miles    
Events      
T = Trace of Precipitation, MM = Missing Value Source: NWS Daily Summary

Daily Weather History Graph

Daily Weather History Graph

Search for Another Location

Airport or City:

Trip Planner

Search our weather history database for the weather conditions in past years. The results will help you decide how hot, cold, wet, or windy it might be!

Date:

Astronomy

Sep. 25, 2013 Rise Set
Actual Time 6:43 AM CDT 6:44 PM CDT
Civil Twilight 6:16 AM CDT 7:12 PM CDT
Nautical Twilight 5:43 AM CDT 7:44 PM CDT
Astronomical Twilight 5:10 AM CDT 8:17 PM CDT
Moon 10:46 PM CDT (9/25) 12:54 PM CDT (9/25)
Length of Visible Light 12h 56m
Length of Day
12h 00m
Waning Gibbous, 64% of the Moon is Illuminated
Sep 25
Waning Gibbous
Sep 26
Last Quarter
Oct 4
New
Oct 11
First Quarter
Oct 18
Full

Hourly Weather History & Observations

Time (CDT) Temp. Windchill Dew Point Humidity Pressure Visibility Wind Dir Wind Speed Gust Speed Precip Events Conditions
12:52 AM 50.0 °F - 48.9 °F 96% 29.95 in 7.0 mi North 4.6 mph - N/A   Clear
1:52 AM 50.0 °F - 50.0 °F 100% 29.95 in 6.0 mi NNE 4.6 mph - N/A   Clear
2:52 AM 48.9 °F - 48.0 °F 97% 29.94 in 7.0 mi North 3.5 mph - N/A   Clear
3:17 AM 48.2 °F - 46.4 °F 93% 29.94 in 1.8 mi North 4.6 mph - N/A   Clear
3:36 AM 46.4 °F 44.3 °F 46.4 °F 100% 29.94 in 3.0 mi NNE 4.6 mph - N/A   Clear
3:52 AM 46.9 °F - 46.9 °F 100% 29.94 in 4.0 mi North 4.6 mph - N/A   Clear
4:52 AM 46.9 °F - 46.0 °F 97% 29.94 in 5.0 mi North 5.8 mph - N/A   Clear
5:52 AM 46.9 °F - 45.0 °F 93% 29.95 in 6.0 mi Calm Calm - N/A   Clear
6:52 AM 46.0 °F 43.9 °F 45.0 °F 96% 29.96 in 6.0 mi North 4.6 mph - N/A   Clear
7:52 AM 52.0 °F - 50.0 °F 93% 29.97 in 10.0 mi North 3.5 mph - N/A   Clear
8:52 AM 61.0 °F - 55.9 °F 83% 29.97 in 7.0 mi NE 4.6 mph - N/A   Clear
9:52 AM 64.9 °F - 54.0 °F 68% 29.98 in 10.0 mi NE 6.9 mph - N/A   Clear
10:52 AM 68.0 °F - 52.0 °F 56% 29.98 in 10.0 mi East 10.4 mph - N/A   Clear
11:52 AM 69.1 °F - 50.0 °F 51% 29.97 in 10.0 mi Variable 5.8 mph - N/A   Clear
12:52 PM 70.0 °F - 51.1 °F 51% 29.96 in 10.0 mi NE 9.2 mph - N/A   Clear
1:52 PM 71.1 °F - 52.0 °F 51% 29.95 in 10.0 mi NNE 6.9 mph - N/A   Clear
2:52 PM 71.1 °F - 51.1 °F 49% 29.94 in 10.0 mi NE 8.1 mph - N/A   Clear
3:52 PM 71.1 °F - 50.0 °F 47% 29.94 in 10.0 mi NE 8.1 mph - N/A   Clear
4:52 PM 69.1 °F - 51.1 °F 53% 29.94 in 10.0 mi NE 9.2 mph - N/A   Clear
5:52 PM 64.9 °F - 51.1 °F 61% 29.96 in 10.0 mi NE 9.2 mph - N/A   Clear
6:52 PM 61.0 °F - 51.1 °F 70% 29.96 in 10.0 mi NE 5.8 mph - N/A   Clear
7:52 PM 55.9 °F - 48.9 °F 77% 29.97 in 10.0 mi NE 5.8 mph - N/A   Clear
8:52 PM 52.0 °F - 48.0 °F 86% 29.97 in 10.0 mi North 4.6 mph - N/A   Clear
9:52 PM 52.0 °F - 48.9 °F 89% 29.97 in 8.0 mi Calm Calm - N/A   Clear
10:52 PM 48.9 °F - 46.9 °F 93% 29.97 in 6.0 mi North 3.5 mph - N/A   Clear
11:52 PM 50.0 °F - 48.0 °F 93% 29.97 in 6.0 mi North 5.8 mph - N/A   Clear